This demonstration page uses our WeatherBlox Daily Observations layout. Learn more.

Hourly Observations for November 17, 2015

Temp ( °F °C ) Dew Point ( °F °C ) Humidity (%) Winds ( mph kmh ) Pressure ( in mb ) Visibility ( mi km ) Precip ( " mm )
12:15 am 00:15 Cloudy with Thunderstorms 52 11 50 9.8 92 92 ESE 14 22 29.44 997 7 11.26538 0.07 1.778
12:35 am 00:35 Cloudy with Rain 52 11 49 9.7 92 92 ESE 23 37 29.38 995 7 11.26538 0.12 3.048
12:55 am 00:55 Partly Cloudy 51 10.8 49 9.5 92 92 ESE 15 24 29.41 996 10 16.0934 0.13 3.302
1:15 am 01:15 Clear 51 10.6 49 9.5 93 93 ESE 12 19 29.41 996 10 16.0934 0 0
1:35 am 01:35 Partly Cloudy 51 10.6 49 9.4 92 92 ESE 9 15 29.41 996 10 16.0934 0 0
1:55 am 01:55 Partly Cloudy 51 10.5 49 9.3 92 92 Calm 29.41 996 10 16.0934 0 0
2:15 am 02:15 Cloudy 51 10.5 49 9.3 92 92 E 5 7 29.41 996 10 16.0934 0 0
2:35 am 02:35 Cloudy 50 10.2 49 9.2 94 94 N 6 9 29.44 997 10 16.0934 0 0
2:55 am 02:55 Cloudy with Light Rain 50 10 48 9.1 94 94 NNE 17 28 29.41 996 10 16.0934 0 0
3:15 am 03:15 Mostly Cloudy with Light Rain 50 10.2 49 9.2 94 94 NW 10 17 29.44 997 10 16.0934 0 0
3:35 am 03:35 Mostly Cloudy 51 10.5 49 9.3 92 92 NNW 9 15 29.44 997 10 16.0934 0 0
3:55 am 03:55 Cloudy 47 8.3 44 6.7 90 90 NNW 17 28 29.5 999 10 16.0934 0 0
4:15 am 04:15 Cloudy with Light Rain 44 6.6 42 5.3 92 92 N 18 30 29.53 1000 10 16.0934 0 0
4:35 am 04:35 Cloudy with Rain 43 6.2 41 5.1 93 93 NNE 20 31 29.5 999 7 11.26538 0 0
4:55 am 04:55 Cloudy with Light Rain 42 5.7 40 4.7 93 93 N 23 37 29.53 1000 10 16.0934 0.01 0.254
5:15 am 05:15 Cloudy 42 5.3 40 4.3 93 93 N 22 35 29.53 1000 10 16.0934 0 0
5:35 am 05:35 Cloudy 41 5 39 4 93 93 N 16 26 29.56 1001 10 16.0934 0 0
5:55 am 05:55 Cloudy 40 4.6 38 3.6 93 93 N 16 26 29.56 1001 10 16.0934 0 0
6:15 am 06:15 Cloudy 40 4.3 38 3.3 93 93 N 23 37 29.59 1002 7 11.26538 0 0
6:35 am 06:35 Cloudy with Mist and Fog 39 4 37 3 93 93 N 24 39 29.59 1002 5 8.0467 0 0
6:55 am 06:55 Cloudy 39 3.9 37 2.9 93 93 N 22 35 29.59 1002 7 11.26538 0 0
7:15 am 07:15 Cloudy with Mist and Fog 39 3.7 37 2.8 94 94 N 20 31 29.56 1001 5 8.0467 0 0
7:35 am 07:35 Cloudy with Mist and Fog 38 3.6 37 2.7 94 94 N 24 39 29.56 1001 5 8.0467 0 0
7:55 am 07:55 Cloudy with Mist and Fog 38 3.5 37 2.5 93 93 N 20 31 29.59 1002 5 8.0467 0 0
8:15 am 08:15 Cloudy with Mist and Fog 38 3.3 37 2.5 95 95 N 24 39 29.56 1001 4 6.43736 0 0
8:35 am 08:35 Cloudy with Mist and Fog 38 3.2 36 2.3 94 94 N 29 46 29.56 1001 4 6.43736 0 0
8:55 am 08:55 Cloudy with Mist and Fog 38 3.2 36 2.2 93 93 N 24 39 29.56 1001 5 8.0467 0 0
9:15 am 09:15 Cloudy with Mist and Fog 38 3.2 36 2.2 93 93 N 23 37 29.56 1001 4 6.43736 0 0
9:35 am 09:35 Cloudy with Mist and Fog 38 3.1 36 2.1 93 93 N 24 39 29.56 1001 3 4.82802 0 0
9:55 am 09:55 Cloudy with Mist and Fog 37 3 36 2.1 94 94 N 25 41 29.56 1001 4 6.43736 0 0
10:15 am 10:15 Cloudy with Mist and Fog 38 3.2 36 2.3 94 94 N 30 48 29.59 1002 2.5 4.02335 0 0
10:35 am 10:35 Cloudy with Light Rain 38 3.1 36 2.2 94 94 N 18 30 29.59 1002 3 4.82802 0 0
10:55 am 10:55 Cloudy with Mist and Fog 37 3 36 2 93 93 N 23 37 29.59 1002 2.5 4.02335 0 0
11:15 am 11:15 Cloudy with Light Rain 37 3 36 2 93 93 N 24 39 29.59 1002 5 8.0467 0 0
11:35 am 11:35 Cloudy 37 2.7 35 1.6 93 93 N 25 41 29.59 1002 7 11.26538 0 0
11:55 am 11:55 Cloudy 37 2.6 35 1.5 93 93 N 28 44 29.59 1002 10 16.0934 0 0
12:15 pm 12:15 Cloudy with Light Rain 36 2.4 34 1.2 92 92 N 32 52 29.56 1001 4 6.43736 0 0
12:35 pm 12:35 Cloudy with Light Rain 36 2.1 34 1.1 93 93 N 31 50 29.56 1001 2 3.21868 0.04 1.016
12:55 pm 12:55 Cloudy with Light Rain 36 2.1 34 1.1 93 93 N 32 52 29.56 1001 5 8.0467 0.05 1.27
1:15 pm 13:15 Cloudy with Light Rain 36 2 34 1 93 93 N 28 44 29.56 1001 10 16.0934 0 0
1:35 pm 13:35 Cloudy with Rain 36 2 33 0.8 92 92 N 26 43 29.53 1000 2.5 4.02335 0.03 0.762
1:55 pm 13:55 Cloudy 35 1.8 33 0.8 93 93 N 26 43 29.53 1000 1.25 2.011675 0.08 2.032
2:15 pm 14:15 Cloudy 35 1.6 33 0.7 94 94 N 25 41 29.53 1000 3 4.82802 0.01 0.254
2:35 pm 14:35 Cloudy with Light Rain 35 1.6 33 0.7 94 94 N 29 46 29.53 1000 2.5 4.02335 0.02 0.508
2:55 pm 14:55 Cloudy with Light Rain 35 1.5 33 0.6 94 94 N 33 54 29.5 999 2.5 4.02335 0.04 1.016
3:15 pm 15:15 Cloudy with Light Rain 35 1.5 33 0.6 94 94 N 25 41 29.5 999 3 4.82802 0 0
3:35 pm 15:35 Cloudy with Rain 35 1.5 33 0.5 93 93 N 24 39 29.53 1000 3 4.82802 0 0
3:55 pm 15:55 Cloudy with Light Rain 34 1.3 33 0.3 93 93 N 29 46 29.53 1000 2.5 4.02335 0.01 0.254
4:15 pm 16:15 Cloudy with Light Rain 35 1.5 33 0.5 93 93 N 22 35 29.53 1000 3 4.82802 0.03 0.762
4:35 pm 16:35 Cloudy with Light Rain 34 1.3 33 0.5 94 94 N 23 37 29.53 1000 3 4.82802 0.06 1.524
4:55 pm 16:55 Cloudy with Rain 34 1.3 33 0.5 94 94 N 15 24 29.53 1000 4 6.43736 0.06 1.524
5:15 pm 17:15 Cloudy with Light Rain 34 1.3 33 0.5 94 94 N 17 28 29.53 1000 3 4.82802 0.02 0.508
5:35 pm 17:35 Cloudy with Rain 35 1.5 33 0.5 93 93 N 20 31 29.53 1000 7 11.26538 0.04 1.016
5:55 pm 17:55 Cloudy with Light Rain 35 1.5 33 0.5 93 93 N 24 39 29.53 1000 5 8.0467 0.04 1.016
6:15 pm 18:15 Cloudy with Heavy Rain 35 1.6 33 0.6 93 93 NE 5 7 29.59 1002 3 4.82802 0.06 1.524
6:35 pm 18:35 Cloudy with Rain 34 1.3 33 0.3 93 93 N 3 6 29.62 1003 2.5 4.02335 0.14 3.556
6:55 pm 18:55 Cloudy with Light Rain 34 0.9 32 0 94 94 N 7 11 29.62 1003 2.5 4.02335 0.17 4.318
7:15 pm 19:15 Cloudy with Light Rain 34 1.1 33 0.3 94 94 N 10 17 29.62 1003 4 6.43736 0.01 0.254
7:35 pm 19:35 Cloudy with Rain 34 1 32 0.2 94 94 N 10 17 29.62 1003 3 4.82802 0.03 0.762
7:55 pm 19:55 Cloudy with Rain 34 1.1 33 0.3 94 94 NNW 13 20 29.59 1002 4 6.43736 0.04 1.016
8:15 pm 20:15 Cloudy with Light Drizzle 34 1.1 33 0.5 96 96 N 10 17 29.59 1002 7 11.26538 0 0
8:35 pm 20:35 Cloudy with Light Rain 34 1.1 33 0.5 96 96 N 10 17 29.59 1002 7 11.26538 0 0
8:55 pm 20:55 Cloudy with Light Rain 34 1.1 33 0.3 94 94 N 15 24 29.53 1000 10 16.0934 0 0
9:15 pm 21:15 Cloudy with Light Rain 34 1.1 33 0.3 94 94 N 16 26 29.53 1000 10 16.0934 0 0
9:35 pm 21:35 Cloudy with Light Snow 34 0.9 32 0 94 94 N 18 30 29.53 1000 7 11.26538 0 0
9:55 pm 21:55 Windy with Snow Likely 33 0.5 32 0 96 96 N 23 37 29.5 999 2.5 4.02335 0.01 0.254
10:15 pm 22:15 Windy with Snow Likely 33 0.4 32 -0.1 96 96 N 26 43 29.5 999 1.75 2.816345 0.01 0.254
10:35 pm 22:35 Windy with Snow Likely 33 0.3 32 -0.1 97 97 NNW 24 39 29.5 999 2 3.21868 0.02 0.508
10:55 pm 22:55 Cloudy with Light Wintry Mix 33 0.3 32 -0.1 97 97 NNW 21 33 29.5 999 10 16.0934 0.02 0.508
11:15 pm 23:15 Cloudy 33 0.3 32 -0.2 96 96 N 24 39 29.5 999 10 16.0934 0 0
11:35 pm 23:35 Windy with Snow Likely 32 0.2 31 -0.5 95 95 NNW 20 31 29.5 999 7 11.26538 0 0
11:55 pm 23:55 Cloudy 32 0.2 31 -0.3 96 96 NNW 22 35 29.5 999 10 16.0934 0 0

Powered by AerisWeather